Weather History for KPMV - May, 2012

Change the Weather History Date:

Sunday, May 20, 2012

  Actual Average (KOFF) Record (KOFF)
Temperature  
Mean Temperature 64 °F -  
Max Temperature 72 °F 71 °F 86 °F (2014)
Min Temperature 56 °F 52 °F 44 °F (1997)
Growing Degree Days 14 (Base 50)    
Moisture  
Dew Point 50 °F    
Average Humidity 66    
Maximum Humidity 94    
Minimum Humidity 33    
Precipitation  
Precipitation 0.00 in - - ()
Sea Level Pressure  
Sea Level Pressure 30.10 in    
Wind  
Wind Speed 11 mph (NW)    
Max Wind Speed 18 mph    
Max Gust Speed 23 mph    
Visibility 10 miles    
Events      
Averages and records for this station are not official NWS values.
T = Trace of Precipitation, MM = Missing Value Source: NWS Daily Summary

Daily Weather History Graph

Daily Weather History Graph

Search for Another Location

Airport or City:

Trip Planner

Search our weather history database for the weather conditions in past years. The results will help you decide how hot, cold, wet, or windy it might be!

Date:

Astronomy

May. 20, 2012 Rise Set
Actual Time 6:01 AM CDT 8:39 PM CDT
Civil Twilight 5:29 AM CDT 9:11 PM CDT
Nautical Twilight 4:49 AM CDT 9:51 PM CDT
Astronomical Twilight 4:04 AM CDT 10:36 PM CDT
Moon 5:42 AM CDT (5/20) 8:39 PM CDT (5/20)
Length of Visible Light 15h 42m
Length of Day
14h 38m
Waning Crescent, 0% of the Moon is Illuminated
May 20
Waning Crescent
May 20
New
May 28
First Quarter
Jun 4
Full
Jun 11
Last Quarter

Hourly Weather History & Observations

Time (CDT) Temp. Dew Point Humidity Pressure Visibility Wind Dir Wind Speed Gust Speed Precip Events Conditions
12:15 AM 62.6 °F 60.3 °F 92% 29.86 in 10.0 mi WNW 10.4 mph - N/A   Mostly Cloudy
12:35 AM 62.6 °F 59.9 °F 91% 29.86 in 10.0 mi WNW 9.2 mph 17.3 mph N/A   Overcast
12:55 AM 61.9 °F 59.9 °F 93% 29.87 in 10.0 mi West 11.5 mph - N/A   Scattered Clouds
1:15 AM 61.7 °F 59.9 °F 94% 29.87 in 10.0 mi West 8.1 mph - N/A   Clear
1:35 AM 61.7 °F 59.7 °F 93% 29.88 in 10.0 mi WNW 8.1 mph - N/A   Clear
1:55 AM 61.7 °F 59.9 °F 94% 29.89 in 10.0 mi West 8.1 mph - N/A   Mostly Cloudy
2:15 AM 61.2 °F 59.4 °F 94% 29.90 in 10.0 mi WNW 9.2 mph - N/A   Mostly Cloudy
2:35 AM 60.3 °F 58.6 °F 94% 29.90 in 10.0 mi WNW 8.1 mph - N/A   Scattered Clouds
2:55 AM 59.9 °F 58.3 °F 94% 29.91 in 10.0 mi West 10.4 mph - N/A   Scattered Clouds
3:15 AM 59.9 °F 58.1 °F 94% 29.93 in 10.0 mi West 12.7 mph 17.3 mph N/A   Overcast
3:35 AM 59.9 °F 57.7 °F 93% 29.93 in 10.0 mi West 15.0 mph 21.9 mph N/A   Overcast
3:55 AM 59.9 °F 57.6 °F 92% 29.94 in 10.0 mi West 15.0 mph 20.7 mph N/A   Overcast
4:15 AM 59.9 °F 57.4 °F 91% 29.96 in 10.0 mi WNW 13.8 mph 20.7 mph N/A   Overcast
4:35 AM 60.1 °F 57.4 °F 91% 29.97 in 10.0 mi WNW 16.1 mph 21.9 mph N/A   Overcast
4:55 AM 59.9 °F 57.2 °F 91% 29.98 in 10.0 mi WNW 15.0 mph 20.7 mph N/A   Overcast
5:15 AM 59.9 °F 56.8 °F 90% 29.98 in 10.0 mi WNW 13.8 mph 19.6 mph N/A   Overcast
5:35 AM 59.9 °F 57.2 °F 91% 29.98 in 10.0 mi WNW 10.4 mph - N/A   Overcast
5:55 AM 59.9 °F 56.7 °F 89% 29.99 in 10.0 mi NW 13.8 mph - N/A   Overcast
6:15 AM 59.4 °F 55.9 °F 88% 30.00 in 10.0 mi NW 16.1 mph 19.6 mph N/A   Overcast
6:35 AM 59.2 °F 56.3 °F 90% 30.02 in 10.0 mi WNW 13.8 mph 21.9 mph N/A   Overcast
6:55 AM 59.0 °F 55.9 °F 90% 30.03 in 10.0 mi NW 10.4 mph - N/A   Overcast
7:15 AM 59.2 °F 55.4 °F 87% 30.05 in 10.0 mi WNW 15.0 mph 19.6 mph N/A   Overcast
7:35 AM 59.0 °F 54.5 °F 85% 30.06 in 10.0 mi NW 16.1 mph 20.7 mph N/A   Overcast
7:55 AM 58.6 °F 54.0 °F 84% 30.07 in 10.0 mi NNW 12.7 mph 17.3 mph N/A   Overcast
8:15 AM 58.6 °F 53.8 °F 84% 30.08 in 10.0 mi NW 18.4 mph - N/A   Overcast
8:35 AM 59.0 °F 52.5 °F 79% 30.09 in 10.0 mi NW 18.4 mph 23.0 mph N/A   Overcast
8:55 AM 59.0 °F 52.7 °F 80% 30.10 in 10.0 mi NW 16.1 mph 21.9 mph N/A   Overcast
9:15 AM 59.2 °F 52.9 °F 80% 30.11 in 10.0 mi NW 16.1 mph - N/A   Overcast
9:35 AM 60.8 °F 53.2 °F 76% 30.11 in 10.0 mi NNW 12.7 mph 20.7 mph N/A   Overcast
9:55 AM 60.8 °F 53.2 °F 76% 30.13 in 10.0 mi NW 15.0 mph - N/A   Overcast
10:15 AM 60.8 °F 53.6 °F 77% 30.13 in 10.0 mi NW 15.0 mph - N/A   Overcast
10:35 AM 60.8 °F 53.6 °F 77% 30.13 in 10.0 mi NW 16.1 mph 19.6 mph N/A   Overcast
10:55 AM 63.5 °F 52.9 °F 68% 30.15 in 10.0 mi NW 12.7 mph 20.7 mph N/A   Mostly Cloudy
11:15 AM 63.0 °F 52.5 °F 69% 30.15 in 10.0 mi NW 12.7 mph 18.4 mph N/A   Overcast
11:35 AM 64.4 °F 52.2 °F 64% 30.16 in 10.0 mi NW 12.7 mph 20.7 mph N/A   Overcast
11:55 AM 64.2 °F 51.6 °F 64% 30.16 in 10.0 mi NW 12.7 mph 21.9 mph N/A   Overcast
12:15 PM 66.9 °F 52.2 °F 59% 30.16 in 10.0 mi NW 15.0 mph 21.9 mph N/A   Mostly Cloudy
12:35 PM 65.8 °F 51.4 °F 60% 30.16 in 10.0 mi NW 17.3 mph 21.9 mph N/A   Mostly Cloudy
12:55 PM 65.8 °F 51.4 °F 60% 30.17 in 10.0 mi NW 16.1 mph 23.0 mph N/A   Overcast
1:15 PM 67.1 °F 51.6 °F 57% 30.17 in 10.0 mi NNW 10.4 mph 19.6 mph N/A   Mostly Cloudy
1:35 PM 67.3 °F 51.1 °F 56% 30.17 in 10.0 mi NNW 15.0 mph - N/A   Overcast
1:55 PM 69.3 °F 51.1 °F 52% 30.18 in 10.0 mi NW 16.1 mph 19.6 mph N/A   Mostly Cloudy
2:15 PM 68.9 °F 50.4 °F 52% 30.18 in 10.0 mi WNW 13.8 mph 20.7 mph N/A   Mostly Cloudy
2:35 PM 70.2 °F 50.0 °F 49% 30.18 in 10.0 mi NW 11.5 mph 20.7 mph N/A   Mostly Cloudy
2:55 PM 69.4 °F 49.3 °F 49% 30.17 in 10.0 mi NW 15.0 mph 18.4 mph N/A   Mostly Cloudy
3:15 PM 70.2 °F 48.6 °F 46% 30.17 in 10.0 mi NNW 10.4 mph 21.9 mph N/A   Scattered Clouds
3:35 PM 70.5 °F 47.8 °F 44% 30.17 in 10.0 mi NNW 11.5 mph 19.6 mph N/A   Scattered Clouds
3:55 PM 72.0 °F 46.6 °F 40% 30.17 in 10.0 mi NNW 11.5 mph 19.6 mph N/A   Scattered Clouds
4:15 PM 71.4 °F 46.2 °F 41% 30.17 in 10.0 mi North 11.5 mph 17.3 mph N/A   Scattered Clouds
4:35 PM 72.0 °F 45.3 °F 38% 30.17 in 10.0 mi NNW 10.4 mph 21.9 mph N/A   Scattered Clouds
4:55 PM 71.6 °F 42.8 °F 35% 30.17 in 10.0 mi North 12.7 mph 18.4 mph N/A   Scattered Clouds
5:15 PM 70.9 °F 41.4 °F 34% 30.17 in 10.0 mi North 9.2 mph 16.1 mph N/A   Clear
5:35 PM 70.7 °F 41.4 °F 35% 30.18 in 10.0 mi North 11.5 mph 18.4 mph N/A   Clear
5:55 PM 70.0 °F 39.7 °F 33% 30.18 in 10.0 mi North 8.1 mph 20.7 mph N/A   Clear
6:15 PM 70.0 °F 39.2 °F 33% 30.18 in 10.0 mi NNW 10.4 mph - N/A   Clear
6:35 PM 69.4 °F 40.1 °F 34% 30.18 in 10.0 mi North 9.2 mph - N/A   Clear
6:55 PM 68.9 °F 40.5 °F 35% 30.18 in 10.0 mi NNW 9.2 mph 16.1 mph N/A   Clear
7:15 PM 68.0 °F 40.3 °F 36% 30.18 in 10.0 mi North 8.1 mph 16.1 mph N/A   Clear
7:35 PM 67.1 °F 40.6 °F 38% 30.19 in 10.0 mi North 9.2 mph 16.1 mph N/A   Clear
7:55 PM 66.2 °F 39.7 °F 38% 30.19 in 10.0 mi North 8.1 mph - N/A   Clear
8:15 PM 64.9 °F 38.5 °F 38% 30.20 in 10.0 mi North 6.9 mph - N/A   Clear
8:35 PM 62.6 °F 39.7 °F 43% 30.20 in 10.0 mi NNW 4.6 mph - N/A   Clear
8:55 PM 61.7 °F 40.6 °F 46% 30.21 in 10.0 mi NNW 4.6 mph - N/A   Clear
9:15 PM 60.3 °F 41.4 °F 50% 30.22 in 10.0 mi Calm Calm - N/A   Clear
9:35 PM 60.3 °F 41.4 °F 50% 30.22 in 10.0 mi Calm Calm - N/A   Clear
9:55 PM 59.7 °F 41.7 °F 51% 30.23 in 10.0 mi Calm Calm - N/A   Clear
10:15 PM 59.0 °F 41.9 °F 53% 30.24 in 10.0 mi North 3.5 mph - N/A   Clear
10:35 PM 58.6 °F 41.7 °F 53% 30.24 in 10.0 mi Calm Calm - N/A   Clear
10:55 PM 58.1 °F 41.5 °F 54% 30.25 in 10.0 mi Calm Calm - N/A   Clear
11:15 PM 58.1 °F 41.5 °F 54% 30.26 in 10.0 mi Calm Calm - N/A   Clear
11:35 PM 57.2 °F 42.1 °F 57% 30.26 in 10.0 mi Calm Calm - N/A   Clear
11:55 PM 56.8 °F 42.1 °F 58% 30.28 in 10.0 mi Calm Calm - N/A   Clear